Temperature
18 18 18 18 17 17 17 17 17 17 17 17 17 17 17 17 17 17 17 16 16 16 16 16 16 16 16 15 15 15 15 16 16 16 16 16 16 16 16 16 16 16 16
18 18 18 17 17 17 17 17 18 17 18 17 18 17 17 17 17 17 17 16 16 16 16 16 16 15 15 15 15 15 15 15 16 15 15 15 15 16 16 16 16 16 16
18 18 18 17 17 17 17 17 17 17 17 17 17 17 17 17 17 16 16 16 16 16 16 16 15 15 15 15 15 15 15 15 15 15 16 16 16 16 16 16 16 15 15
18 18 18 18 18 17 17 17 17 17 17 17 17 17 17 17 17 17 17 16 16 16 16 16 15 15 15 15 15 15 15 15 15 15 16 16 16 16 15 15 15 15 15
18 18 18 18 18 18 17 17 17 17 17 17 17 17 17 17 17 17 17 16 16 16 16 15 15 15 15 15 15 15 15 15 15 15 15 15 16 16 16 15 15 15 15
18 18 18 18 18 18 17 17 17 17 17 17 17 17 17 17 17 17 17 16 16 16 16 15 15 15 15 15 15 15 15 15 15 15 15 15 15 15 15 15 15 15 15
19 18 18 18 17 18 17 17 17 17 17 17 17 17 17 17 17 17 17 17 16 16 16 16 15 15 15 15 15 15 15 15 15 15 15 15 15 15 15 15 15 15 15
19 19 18 18 18 18 17 17 17 17 17 17 17 17 17 17 17 17 17 17 16 16 16 16 15 15 15 15 15 15 15 15 15 15 15 15 15 15 15 15 15 15 15
19 19 19 18 18 18 18 18 18 17 17 17 17 17 17 17 17 17 17 16 16 16 16 16 15 15 15 15 15 15 15 15 15 14 14 14 14 14 14 15 15 15 15
19 19 19 19 19 19 18 18 18 18 18 17 17 17 17 17 17 17 16 16 16 16 16 16 16 15 15 15 15 15 14 14 14 14 14 14 14 14 14 14 14 14 14
19 19 19 19 19 19 18 18 18 18 18 18 18 17 17 17 17 17 17 16 16 16 16 16 16 15 15 15 15 15 15 14 14 14 14 14 14 14 14 14 14 14 14
19 19 19 19 19 19 19 18 18 18 18 18 18 17 17 17 17 17 17 17 16 16 16 16 16 16 15 15 15 15 15 15 15 14 14 14 14 14 14 14 14 14 14
19 19 19 19 19 19 19 19 19 18 18 18 18 17 17 17 17 17 17 17 16 16 16 16 16 16 15 15 15 15 15 15 15 14 14 14 14 14 14 14 14 14 13
19 19 19 19 19 19 19 19 19 19 18 18 18 18 17 17 17 17 17 17 16 16 16 16 16 16 16 15 15 15 15 15 15 14 14 14 14 14 14 14 14 13 13
18 18 19 19 19 19 19 19 19 19 18 18 18 18 18 17 17 17 17 17 17 16 16 16 16 16 16 15 15 15 15 15 15 14 14 14 14 14 14 14 14 13 13
18 18 19 19 19 19 19 19 19 18 18 18 18 18 18 17 17 17 17 17 16 16 16 16 16 16 16 16 15 15 15 15 14 14 14 14 14 14 14 14 14 13 13
17 18 18 18 19 19 19 19 18 18 18 18 18 18 18 17 17 17 17 17 16 16 16 16 16 16 16 16 15 15 15 15 14 14 14 14 14 14 14 13 13 13 13
17 17 18 18 18 18 18 18 18 18 18 18 17 17 17 17 17 17 16 16 16 16 16 16 16 16 16 15 15 15 14 14 14 14 14 14 14 13 13 13 13 13 13
16 17 17 17 18 18 18 18 18 18 17 17 17 17 17 17 16 16 16 16 16 16 16 16 15 15 15 15 15 14 14 14 14 14 14 13 13 13 13 13 13 13 13
16 16 16 17 17 17 17 17 17 17 16 16 16 16 16 16 16 16 16 16 15 15 15 15 15 15 14 14 14 14 14 13 13 13 13 13 13 13 12 12 12 12 13
15 15 16 16 16 16 16 16 16 15 15 15 15 15 15 15 15 15 15 15 15 14 14 14 14 14 14 14 13 13 13 13 13 13 13 12 12 12 12 12 12 12 12
14 14 14 14 14 15 15 15 15 14 14 14 15 15 15 14 14 14 14 14 14 14 14 13 13 13 13 13 13 13 12 12 12 12 12 12 12 12 12 11 11 11 11
13 13 14 13 13 13 14 14 13 13 13 14 14 14 14 13 13 13 13 13 13 13 13 13 12 12 12 12 12 12 12 12 11 11 11 11 11 11 11 11 11 10 10
13 13 13 12 12 12 12 12 12 12 13 13 13 13 12 12 12 12 12 12 12 12 12 12 12 12 11 11 11 11 11 11 11 11 11 11 10 10 10 10 10 10 9
12 12 12 12 11 12 12 12 12 12 12 12 12 12 12 12 12 11 11 11 11 11 11 11 11 11 11 11 10 10 10 10 10 10 10 10 10 10 10 9 9 9 9
11 11 11 11 11 11 11 11 11 11 11 11 11 11 11 11 11 11 11 11 11 10 10 10 10 10 10 10 10 10 10 10 9 9 9 9 9 9 9 9 9 8 8
Wind_Speed
7 7 7 8 9 9 12 13 12 10 9 7 6 6 5 4 4 5 9 10 10 10 8 5 5 4 4 3 4 3 3 2 1 3 3 3 3 3 2 1 1 1 0
6 8 8 8 10 11 12 13 12 10 10 7 6 4 4 3 3 3 6 9 10 10 9 7 5 4 4 4 3 3 3 2 2 2 2 2 3 3 3 2 1 1 1
9 9 9 9 10 11 12 12 12 11 9 8 6 5 4 4 3 3 3 5 9 9 9 9 7 5 4 4 3 3 4 3 2 1 3 3 3 1 2 3 3 2 1
9 9 10 10 11 11 10 10 11 11 10 10 9 9 6 5 5 4 4 4 7 8 9 9 8 6 4 4 4 3 3 4 2 1 1 1 2 3 0 2 2 2 2
10 11 11 10 10 10 10 10 10 10 9 10 11 9 6 4 4 4 6 5 4 6 8 9 8 6 5 5 4 4 3 3 3 3 2 2 2 2 2 1 2 2 2
8 9 9 8 9 10 10 11 11 10 9 10 10 10 9 8 7 6 6 5 4 3 5 7 7 6 5 5 5 4 5 3 3 3 2 2 2 2 2 2 1 1 2
7 9 10 10 11 11 11 11 12 10 10 10 10 10 10 10 10 8 8 7 5 4 6 6 6 5 6 6 5 5 4 4 4 4 2 2 2 2 3 3 2 0 1
6 8 10 10 11 12 12 12 12 11 11 11 10 9 9 8 7 8 8 8 7 6 6 7 7 7 7 7 6 4 4 4 4 4 4 2 2 2 3 3 3 1 1
6 7 9 10 11 12 12 13 13 11 11 11 10 9 9 9 8 8 7 6 6 6 7 8 7 7 7 7 7 4 5 5 4 4 4 3 2 2 2 3 3 4 2
6 6 7 9 9 9 9 9 10 11 9 10 10 9 9 9 8 8 8 7 7 6 8 8 8 8 7 7 7 5 5 5 4 4 4 3 2 2 2 3 2 3 4
7 7 7 7 7 7 8 9 9 8 9 9 9 9 9 9 8 8 9 8 7 8 8 8 9 9 9 8 7 7 7 7 6 5 6 5 4 3 3 3 3 3 3
6 6 6 7 7 8 8 8 9 9 9 9 9 9 8 8 9 9 9 8 8 8 8 8 8 9 9 9 9 9 9 9 8 8 7 7 5 5 4 4 4 4 4
4 5 5 6 7 8 7 7 8 8 8 8 9 8 8 9 9 9 8 8 8 8 8 8 9 9 9 10 10 10 9 10 9 9 9 8 7 7 6 6 5 5 5
4 4 5 5 6 6 7 7 7 7 7 7 8 8 8 9 9 8 8 8 8 8 9 9 10 9 9 9 10 9 9 9 9 9 10 9 10 9 9 7 7 6 5
4 4 5 5 5 5 5 6 6 6 6 7 7 7 6 6 6 7 7 7 8 9 9 9 8 8 8 8 9 9 10 9 9 9 9 10 11 12 10 8 8 7 6
5 4 4 4 4 5 5 5 5 5 6 7 7 6 5 5 5 6 7 7 7 7 7 9 9 9 8 11 13 11 9 9 10 9 9 9 10 11 13 13 11 10 8
5 4 3 3 3 3 4 4 4 5 6 6 5 5 5 5 5 5 5 6 7 7 7 8 8 9 9 11 12 13 9 8 8 8 7 7 7 8 8 10 12 12 13
6 5 4 3 2 3 3 4 5 5 5 5 4 4 4 4 4 4 4 5 4 5 6 6 7 7 8 9 10 11 9 7 7 7 7 7 7 7 8 8 8 8 9
6 6 5 5 5 4 4 6 6 5 5 4 3 3 4 3 3 3 3 3 3 4 4 3 4 5 5 7 9 9 6 6 7 7 6 7 7 8 8 7 8 8 7
8 8 8 9 9 6 6 9 8 7 5 4 3 3 3 3 3 2 2 1 2 1 1 1 1 2 3 4 6 8 5 5 5 5 5 7 8 7 6 7 7 9 8
10 10 11 11 9 8 9 11 9 7 5 6 6 5 4 3 2 2 2 2 2 2 1 1 1 0 1 1 2 5 4 5 4 4 4 4 6 7 7 8 7 9 7
12 11 12 12 10 9 10 11 9 6 6 7 8 7 6 5 4 4 4 3 3 2 1 1 1 2 2 1 1 1 3 3 3 3 3 2 3 4 5 5 7 8 6
11 10 12 12 11 10 11 11 6 6 8 9 8 7 8 7 6 5 4 4 3 2 2 2 1 2 2 2 3 2 1 0 1 1 1 1 2 3 3 4 5 5 3
10 10 12 13 11 10 11 9 7 7 9 9 8 7 7 7 7 6 5 4 4 3 2 2 2 2 2 2 2 2 1 1 0 1 2 2 2 2 2 3 3 2 3
9 10 11 11 10 9 10 9 8 8 10 9 8 7 7 6 6 6 5 4 3 2 2 1 1 1 2 3 3 2 2 2 2 2 2 2 2 3 3 3 3 3 3
9 10 10 10 9 9 10 9 8 8 9 8 7 6 5 5 5 5 6 8 7 8 7 5 4 2 2 4 5 4 4 3 2 2 1 2 2 3 4 4 4 4 4
Wind_Direction
192 180 185 180 176 179 176 175 175 171 161 159 157 155 160 156 156 165 162 160 159 157 147 137 135 139 140 143 135 114 91 63 63 82 46 19 21 33 24 1 360 358 314
179 178 179 179 180 181 180 176 175 171 165 167 158 151 141 144 146 150 153 159 158 158 154 145 146 144 134 128 130 128 117 74 59 113 104 44 4 5 17 18 24 5 5
190 186 182 183 184 182 182 180 175 170 163 155 137 127 111 100 116 141 151 162 162 162 156 155 150 148 146 150 148 144 136 129 71 75 142 147 199 307 350 13 23 11 16
191 189 186 187 189 186 180 172 168 165 162 159 161 164 163 163 176 167 161 157 165 163 161 158 155 152 152 154 160 147 140 136 135 94 58 107 146 146 86 347 0 9 14
190 189 189 191 186 179 172 168 163 165 165 169 171 170 163 153 144 142 150 158 160 166 167 162 159 157 159 161 153 144 145 142 149 153 137 100 72 85 139 182 333 356 356
192 189 183 179 176 170 168 168 168 170 169 169 170 171 166 158 155 159 165 166 162 167 174 168 166 166 163 164 160 156 152 148 143 149 152 156 153 158 145 162 222 306 322
185 181 175 176 175 173 172 173 171 176 173 173 175 178 174 170 174 174 175 172 172 181 188 177 173 173 175 171 162 158 162 161 156 161 164 168 166 152 148 142 157 227 317
179 181 178 177 178 177 176 175 177 181 178 179 180 178 174 177 184 182 177 182 188 190 182 181 180 180 176 174 167 167 175 171 170 172 163 160 169 167 164 157 149 135 340
177 182 177 175 177 179 180 180 178 179 181 182 177 178 180 184 186 182 179 184 188 188 182 182 182 183 181 176 169 177 181 173 179 178 173 170 180 179 178 164 159 155 184
174 173 172 176 179 179 174 171 173 179 179 178 180 186 187 189 184 179 184 188 193 189 180 185 188 188 187 182 177 178 182 178 187 186 180 182 186 183 177 175 172 165 172
180 179 172 170 167 162 163 169 172 171 175 180 182 183 187 187 183 187 193 194 193 191 192 192 191 192 192 188 187 192 186 190 197 196 194 201 189 188 187 177 175 178 172
173 167 158 155 156 162 166 174 176 179 184 182 182 188 186 183 187 196 197 192 195 195 196 193 194 199 198 193 195 200 198 199 204 205 201 210 200 199 198 193 195 196 196
156 146 144 157 166 168 171 179 179 184 182 175 180 185 187 188 195 199 195 192 195 195 194 193 199 204 203 201 205 205 204 207 210 207 207 212 203 209 207 205 207 208 206
147 149 153 159 164 166 171 179 180 178 175 172 177 188 195 197 198 197 195 195 195 196 198 202 206 207 206 206 208 208 211 214 217 216 216 216 211 215 212 212 214 211 209
138 161 166 162 159 161 168 178 178 173 170 170 180 195 194 190 191 196 198 198 200 207 203 204 208 207 205 209 208 210 215 218 224 225 224 224 222 220 216 217 216 210 215
140 152 155 156 169 179 177 178 181 172 166 174 186 184 173 176 191 202 199 199 206 209 204 207 208 208 213 213 208 206 213 217 222 227 230 231 230 229 225 225 220 208 213
121 119 126 148 170 179 176 177 177 156 156 170 173 165 169 183 197 200 198 202 207 207 210 214 211 215 219 214 210 207 207 212 219 224 228 234 233 225 232 235 233 228 224
99 98 101 104 106 113 128 133 123 130 139 143 147 152 167 189 192 188 198 206 203 203 211 216 216 219 227 218 213 208 207 215 221 221 223 229 238 234 228 234 238 240 238
83 82 85 86 83 91 112 112 108 114 118 126 136 147 160 163 161 185 199 200 201 210 210 202 209 219 238 221 211 202 206 217 225 226 224 226 236 240 225 229 243 252 256
75 78 79 75 70 62 91 99 95 94 92 92 95 97 110 121 138 171 162 159 181 199 184 169 186 213 240 235 215 198 203 220 232 231 230 227 231 239 230 231 238 252 260
72 72 70 66 58 58 80 85 82 77 74 77 77 72 75 88 91 87 81 91 101 100 98 90 50 17 280 275 218 196 203 217 228 233 238 239 236 242 240 232 237 247 259
71 71 72 64 52 54 75 79 73 67 73 75 72 63 57 61 64 70 67 70 82 83 67 61 20 0 352 360 336 177 200 214 221 237 241 244 252 256 252 241 250 257 258
75 73 76 68 54 50 65 72 54 59 71 69 63 58 56 54 54 62 63 63 62 66 54 59 41 14 14 15 21 26 22 287 229 278 322 324 308 294 278 263 265 266 259
76 75 76 71 59 50 56 58 51 62 71 67 58 54 55 51 49 52 55 61 56 53 52 60 47 15 6 3 6 20 25 16 344 332 353 357 342 320 295 300 297 276 255
77 77 79 74 61 53 50 43 45 63 68 63 55 50 48 48 46 48 48 48 44 47 62 40 41 30 358 343 352 24 20 21 26 35 28 7 349 336 322 307 294 284 274
83 80 76 73 63 56 48 38 40 59 68 62 51 48 47 47 49 48 44 42 44 42 54 55 53 33 18 8 25 31 30 29 51 66 9 325 309 298 297 298 298 291 282
Height
1480 1482 1484 1486 1489 1492 1495 1500 1506 1512 1518 1522 1527 1531 1535 1539 1542 1546 1548 1550 1552 1554 1556 1557 1558 1560 1561 1563 1564 1564 1565 1566 1567 1568 1569 1570 1571 1572 1572 1573 1573 1574 1575
1478 1480 1482 1484 1487 1489 1493 1498 1503 1510 1515 1521 1526 1530 1534 1538 1541 1545 1547 1549 1551 1553 1555 1556 1558 1559 1560 1562 1563 1564 1565 1565 1566 1568 1569 1570 1572 1571 1572 1572 1573 1574 1574
1475 1477 1479 1481 1484 1487 1491 1495 1501 1508 1513 1519 1525 1529 1533 1536 1540 1543 1545 1548 1550 1552 1554 1555 1557 1558 1560 1561 1562 1563 1564 1565 1566 1567 1569 1569 1570 1570 1572 1572 1572 1573 1574
1473 1475 1477 1479 1482 1486 1490 1495 1500 1506 1512 1517 1522 1526 1530 1533 1538 1541 1544 1547 1549 1551 1553 1554 1556 1557 1558 1560 1561 1562 1563 1564 1565 1566 1567 1568 1569 1570 1570 1572 1572 1572 1573
1470 1472 1475 1478 1480 1484 1488 1493 1499 1505 1510 1516 1521 1525 1529 1533 1537 1540 1543 1546 1548 1550 1551 1553 1555 1556 1557 1559 1560 1561 1562 1563 1564 1565 1566 1567 1568 1568 1569 1570 1571 1572 1573
1468 1471 1474 1477 1479 1483 1487 1492 1498 1504 1509 1514 1519 1523 1527 1531 1535 1538 1541 1544 1546 1548 1550 1552 1553 1555 1556 1557 1558 1560 1561 1562 1563 1564 1565 1566 1567 1567 1568 1569 1570 1570 1571
1466 1469 1472 1474 1477 1481 1486 1491 1496 1502 1507 1512 1516 1521 1526 1530 1533 1536 1539 1542 1544 1546 1548 1550 1552 1553 1554 1556 1557 1558 1559 1560 1561 1562 1563 1564 1565 1566 1567 1568 1568 1569 1570
1464 1467 1470 1473 1476 1481 1486 1490 1495 1500 1505 1510 1514 1519 1524 1527 1531 1534 1537 1540 1542 1545 1547 1548 1550 1552 1553 1554 1555 1556 1557 1558 1559 1560 1561 1562 1563 1564 1565 1566 1567 1567 1568
1463 1466 1469 1473 1477 1481 1485 1489 1494 1499 1504 1508 1513 1517 1521 1524 1528 1532 1535 1538 1540 1543 1545 1546 1548 1550 1551 1552 1553 1554 1555 1556 1557 1558 1559 1560 1561 1562 1563 1564 1565 1566 1566
1463 1466 1469 1472 1476 1480 1484 1489 1493 1497 1502 1507 1511 1515 1518 1522 1526 1529 1532 1535 1538 1540 1542 1544 1546 1547 1549 1550 1551 1552 1553 1554 1555 1556 1557 1558 1559 1560 1560 1561 1562 1563 1564
1462 1465 1468 1471 1476 1479 1483 1487 1492 1496 1500 1504 1508 1512 1516 1519 1523 1526 1529 1532 1535 1537 1540 1542 1543 1545 1546 1547 1548 1549 1550 1551 1552 1553 1554 1555 1556 1557 1558 1558 1559 1560 1561
1461 1464 1467 1470 1474 1478 1482 1486 1490 1494 1498 1502 1505 1509 1513 1516 1520 1523 1526 1529 1532 1534 1537 1539 1541 1542 1544 1545 1546 1547 1548 1548 1549 1550 1551 1552 1553 1554 1555 1555 1556 1557 1557
1461 1464 1466 1469 1473 1476 1480 1484 1488 1492 1496 1499 1503 1507 1510 1513 1516 1520 1523 1526 1528 1531 1534 1536 1537 1539 1540 1541 1542 1544 1544 1545 1546 1547 1548 1549 1550 1550 1551 1552 1553 1553 1554
1461 1463 1465 1468 1471 1475 1479 1482 1486 1490 1493 1497 1500 1503 1507 1510 1513 1516 1520 1522 1525 1527 1529 1532 1533 1535 1536 1537 1538 1540 1541 1541 1542 1543 1544 1545 1546 1547 1548 1548 1549 1550 1550
1460 1462 1465 1467 1470 1474 1478 1481 1484 1488 1491 1495 1498 1501 1504 1507 1510 1513 1516 1519 1521 1523 1525 1527 1529 1530 1531 1532 1534 1535 1536 1537 1537 1538 1539 1540 1541 1542 1543 1544 1545 1545 1546
1459 1462 1464 1467 1470 1473 1476 1479 1482 1486 1489 1492 1495 1498 1501 1504 1507 1510 1512 1514 1517 1519 1520 1522 1523 1524 1526 1527 1528 1530 1530 1531 1532 1533 1534 1535 1537 1538 1538 1539 1540 1541 1541
1458 1461 1463 1466 1469 1472 1475 1477 1481 1484 1486 1489 1492 1495 1498 1501 1503 1506 1508 1510 1512 1514 1515 1517 1518 1519 1520 1521 1523 1524 1525 1526 1527 1528 1529 1530 1531 1532 1533 1534 1535 1535 1535
1459 1461 1463 1466 1469 1471 1474 1477 1480 1482 1485 1487 1490 1493 1495 1498 1500 1502 1503 1505 1507 1509 1510 1511 1513 1514 1515 1516 1517 1519 1519 1520 1521 1522 1523 1525 1525 1526 1527 1528 1528 1529 1529
1460 1462 1464 1466 1468 1471 1473 1476 1478 1481 1483 1486 1488 1490 1493 1495 1497 1498 1499 1501 1503 1504 1505 1506 1507 1508 1509 1510 1511 1512 1513 1514 1515 1516 1517 1518 1519 1520 1521 1521 1521 1521 1522
1461 1462 1464 1466 1468 1471 1473 1474 1477 1479 1482 1484 1487 1489 1491 1492 1494 1495 1496 1498 1499 1500 1501 1501 1502 1503 1504 1506 1506 1507 1507 1508 1509 1511 1511 1512 1513 1513 1514 1514 1514 1514 1514
1463 1465 1466 1467 1469 1472 1474 1475 1477 1480 1482 1484 1486 1488 1489 1491 1492 1493 1493 1495 1496 1497 1497 1497 1498 1499 1500 1501 1501 1502 1502 1502 1504 1505 1505 1506 1507 1507 1507 1508 1507 1507 1507
1467 1468 1469 1470 1473 1475 1476 1477 1479 1482 1484 1485 1486 1487 1488 1489 1490 1491 1491 1493 1494 1495 1495 1495 1496 1496 1497 1497 1497 1497 1497 1498 1499 1499 1500 1500 1500 1501 1501 1501 1500 1500 1500
1471 1473 1474 1475 1477 1478 1479 1480 1483 1485 1485 1486 1487 1488 1489 1490 1490 1491 1491 1492 1493 1493 1493 1494 1494 1494 1494 1494 1494 1494 1494 1494 1495 1495 1494 1494 1495 1495 1495 1494 1494 1494 1493
1475 1477 1479 1480 1481 1483 1483 1484 1486 1487 1487 1488 1489 1489 1490 1491 1491 1491 1492 1492 1492 1492 1493 1493 1492 1492 1492 1492 1492 1491 1491 1492 1491 1491 1491 1491 1490 1490 1490 1489 1488 1488 1487
1480 1482 1483 1484 1486 1487 1487 1488 1489 1489 1490 1490 1491 1491 1492 1492 1492 1492 1492 1492 1492 1492 1493 1492 1492 1491 1491 1491 1491 1490 1489 1489 1489 1488 1488 1488 1487 1487 1486 1485 1484 1483 1482
1485 1486 1487 1488 1490 1491 1491 1492 1493 1493 1493 1493 1493 1493 1494 1494 1494 1494 1494 1493 1493 1493 1492 1492 1491 1491 1490 1489 1489 1488 1488 1487 1487 1486 1485 1485 1484 1483 1482 1481 1480 1479 1477